sat.trackr.live / text

‹ back to catalog

STARLINK-3858

NORAD 52553 · 2022-051W

PAYLOAD ACTIVE UNKNOWN

§ Identity

Operator
Country
US
Launch date
2022-05-13
Launch site
AFWTR
Launch vehicle
Mass (kg)
RCS (m²)

Purposes: comms

External: N2YO · Heavens-Above · Gunter

§ Orbital elements

Epoch: 2026-05-25T06:00:02.000160Z

Period
92.44 min
Inclination
53.2199°
Eccentricity
0.0001278
Mean motion
15.57841923 rev/d
Perigee alt
393.0 km
Apogee alt
394.8 km
Semi-major
6,772.0 km
B*
1.4595e-2
RAAN
139.1094°
Arg perigee
79.9288°
Mean anomaly
328.1266°
Rev number
587

§ Raw data

STARLINK-38581 52553U 22051W   26145.25002315  .01215848  00000+0  14595-1 0  99992 52553  53.2199 139.1094 0001278  79.9288 328.1266 15.57841923  5872

JSON: /api/v1/satellites/52553 · /tle

For live sub-satellite position, see the globe view (requires WebGL).

§ Visibility from observer

Set your observer location to see the next 7 days of passes ≥ 10°. The values pass through the URL so the page stays shareable.

No JS? Fill the form by hand. The geolocation button needs JavaScript.